DMSP 5D-2 F11 DEB

Satellite information

Favourite Embed

Satellite Type and Status

DEBRISIN ORBIT

Key statistics

Satellite DMSP 5D-2 F11 DEB at a glance.

Uptime

12435

Days in orbit

Revolutions

≈ 14.3

Per day

Orbit

SSO

Sun Synchronous Orbit

Inclination

98.9

Latest

Satellite identification and parameters

Extended collection of information and parameters for DMSP 5D-2 F11 DEB.

Object identification

Identified? True

Debris? True

Object name: DMSP 5D-2 F11 DEB

International designator: 1991-082AS

Object number (NORAD): 28329

Object ID (CCSDS): 28329

Country: UNITED STATES OF AMERICA (US)

Current information (Y/N): Y

RCS size: SMALL

Orbital parameters

Period: 100.425 minutes

Inclination: 98.9144 deg

SMA: 7156.829 km

Apoapsis: 827.845 km

Periapsis: 729.544 km

RAAN: 60.4724 deg

Eccentricy: 0.00686763

Argument of periapsis: 45.4696 deg

Mean anomaly: 315.207 deg

Mean motion: 14.33909601 rev/day

Mean motion (dot): 0.00008129 rev/day2

B* drag term: 0.0028538429 1/REarth

Two-line elements (TLE)

Creation date: Dec. 12, 2025, 3:16 a.m.

Reference frame: TEME

Reference center: EARTH

Epoch: Dec. 11, 2025, 3:54 p.m. UTC

TLE line 0: 0 DMSP 5D-2 F11 DEB

TLE line 1: 1 28329U 91082AS 25345.66297296 .00008129 00000-0 28538-2 0 9998

TLE line 2: 2 28329 98.9144 60.4724 0068676 45.4696 315.2070 14.33909601111020

Live tracking on map

Real-time ground track for satellite DMSP 5D-2 F11 DEB.

In-orbit conjunctions

A list of the most updated potential collisions computed for object DMSP 5D-2 F11 DEB.

Target Orbit TCA Probability of collision Miss distance Type
COSMOS 2219 LEO 2025-04-12 04:09:25 0.000627183 297.0 (m) PAYLOAD
NOAA 11 SSO 2024-06-01 06:11:27 0.0007071811 147.0 (m) PAYLOAD

Associated space launch

Military meteorological satellite

DMSP 5D-2 F11 DEB was lifted into orbit during the mission ‘Atlas E | DMSP-5D2 F11’, on board a Atlas E space rocket.

The launch took place on Nov. 28, 1991, 1:23 p.m. from Space Launch Complex 3W.

For more information about the launch, click the button.

Launch to space Atlas E | DMSP-5D2 F11
Atlas E | DMSP-5D2 F11

Agency: N/A

Status: Launch Successful

Launch date: Nov. 28, 1991, 1:23 p.m. UTC

Rocket: Atlas E

Launch pad: Space Launch Complex 3W

Location: Vandenberg SFB, CA, USA

...

Latest news about this satellite

There are no fresh news available about this satellite. Check back as we update our databases every day.


Newsletter sign-up

Weekly statistics, charts and insights to help you stay on top of the space industry.